date,time,SUV Intensity [MED/Hr],UV Index,Daily total [MED],Since Last [MED]
05/10/2023,00:02:01,0.000,0.0,0.0,0.0
05/10/2023,00:03:00,0.000,0.0,0.0,0.0
05/10/2023,00:04:02,0.000,0.0,0.0,0.0
05/10/2023,00:05:00,0.001,0.0,0.0,0.0
05/10/2023,00:06:01,-0.001,0.0,0.0,0.0
05/10/2023,00:07:01,0.000,0.0,0.0,0.0
05/10/2023,00:08:01,-0.000,0.0,0.0,0.0
05/10/2023,00:09:01,0.000,0.0,0.0,0.0
05/10/2023,00:10:00,0.000,0.0,0.0,0.0
05/10/2023,00:11:00,0.000,0.0,0.0,0.0
05/10/2023,00:12:01,0.000,0.0,0.0,0.0
05/10/2023,00:13:01,0.000,0.0,0.0,0.0
05/10/2023,00:14:00,0.000,0.0,0.0,0.0
05/10/2023,00:15:01,0.000,0.0,0.0,0.0
05/10/2023,00:16:01,0.000,0.0,0.0,0.0
05/10/2023,00:17:01,0.001,0.0,0.0,0.0
05/10/2023,00:18:01,0.000,0.0,0.0,0.0
05/10/2023,00:19:00,0.000,0.0,0.0,0.0
05/10/2023,00:20:01,-0.001,0.0,0.0,0.0
05/10/2023,00:21:01,-0.001,0.0,0.0,0.0
05/10/2023,00:22:01,-0.000,0.0,0.0,0.0
05/10/2023,00:23:00,0.000,0.0,0.0,0.0
05/10/2023,00:24:00,0.000,0.0,0.0,0.0
05/10/2023,00:25:01,0.000,0.0,0.0,0.0
05/10/2023,00:26:01,-0.001,0.0,0.0,0.0
05/10/2023,00:27:01,0.000,0.0,0.0,0.0
05/10/2023,00:28:00,0.000,0.0,0.0,0.0
05/10/2023,00:29:00,0.000,0.0,0.0,0.0
05/10/2023,00:30:01,0.000,0.0,0.0,0.0
05/10/2023,00:31:01,-0.001,0.0,0.0,0.0
05/10/2023,00:32:01,0.001,0.0,0.0,0.0
05/10/2023,00:33:01,0.000,0.0,0.0,0.0
05/10/2023,00:34:01,-0.001,0.0,0.0,0.0
05/10/2023,00:35:00,0.001,0.0,0.0,0.0
05/10/2023,00:36:01,0.000,0.0,0.0,0.0
05/10/2023,00:37:01,0.000,0.0,0.0,0.0
05/10/2023,00:38:01,0.001,0.0,0.0,0.0
05/10/2023,00:39:01,0.000,0.0,0.0,0.0
05/10/2023,00:40:00,0.000,0.0,0.0,0.0
05/10/2023,00:41:01,0.001,0.0,0.0,0.0
05/10/2023,00:42:01,0.000,0.0,0.0,0.0
05/10/2023,00:43:00,-0.000,0.0,0.0,0.0
05/10/2023,00:44:01,0.000,0.0,0.0,0.0
05/10/2023,00:45:01,0.000,0.0,0.0,0.0
05/10/2023,00:46:01,0.000,0.0,0.0,0.0
05/10/2023,00:47:00,0.000,0.0,0.0,0.0
05/10/2023,00:48:00,0.000,0.0,0.0,0.0
05/10/2023,00:49:01,0.000,0.0,0.0,0.0
05/10/2023,00:50:01,0.000,0.0,0.0,0.0
05/10/2023,00:51:00,0.000,0.0,0.0,0.0
05/10/2023,00:52:01,0.000,0.0,0.0,0.0
05/10/2023,00:53:01,-0.000,0.0,0.0,0.0
05/10/2023,00:54:00,-0.001,0.0,0.0,0.0
05/10/2023,00:55:01,-0.001,0.0,0.0,0.0
05/10/2023,00:56:01,0.000,0.0,0.0,0.0
05/10/2023,00:57:00,0.000,0.0,0.0,0.0
05/10/2023,00:58:01,-0.000,0.0,0.0,0.0
05/10/2023,00:59:01,-0.001,0.0,0.0,0.0
05/10/2023,01:00:00,0.000,0.0,0.0,0.0
05/10/2023,01:01:01,0.000,0.0,0.0,0.0
05/10/2023,01:02:00,-0.001,0.0,0.0,0.0
05/10/2023,01:03:00,0.001,0.0,0.0,0.0
05/10/2023,01:04:00,0.001,0.0,0.0,0.0
05/10/2023,01:05:01,0.000,0.0,0.0,0.0
05/10/2023,01:06:01,0.000,0.0,0.0,0.0
05/10/2023,01:07:00,-0.001,0.0,0.0,0.0
05/10/2023,01:08:01,0.000,0.0,0.0,0.0
05/10/2023,01:09:00,0.000,0.0,0.0,0.0
05/10/2023,01:10:01,-0.001,0.0,0.0,0.0
05/10/2023,01:11:00,0.001,0.0,0.0,0.0
05/10/2023,01:12:01,0.000,0.0,0.0,0.0
05/10/2023,01:13:01,0.000,0.0,0.0,0.0
05/10/2023,01:14:00,0.000,0.0,0.0,0.0
05/10/2023,01:15:01,0.000,0.0,0.0,0.0
05/10/2023,01:16:01,0.000,0.0,0.0,0.0
05/10/2023,01:17:01,0.000,0.0,0.0,0.0
05/10/2023,01:18:01,0.000,0.0,0.0,0.0
05/10/2023,01:19:01,-0.001,0.0,0.0,0.0
05/10/2023,01:20:01,0.000,0.0,0.0,0.0
05/10/2023,01:21:01,-0.001,0.0,0.0,0.0
05/10/2023,01:22:00,0.001,0.0,0.0,0.0
05/10/2023,01:23:01,-0.001,0.0,0.0,0.0
05/10/2023,01:24:01,0.000,0.0,0.0,0.0
05/10/2023,01:25:01,-0.001,0.0,0.0,0.0
05/10/2023,01:26:01,0.000,0.0,0.0,0.0
05/10/2023,01:27:01,-0.001,0.0,0.0,0.0
05/10/2023,01:28:01,0.000,0.0,0.0,0.0
05/10/2023,01:29:01,0.000,0.0,0.0,0.0
05/10/2023,01:30:01,-0.001,0.0,0.0,0.0
05/10/2023,01:31:00,-0.001,0.0,0.0,0.0
05/10/2023,01:32:01,-0.000,0.0,0.0,0.0
05/10/2023,01:33:01,-0.001,0.0,0.0,0.0
05/10/2023,01:34:00,-0.000,0.0,0.0,0.0
05/10/2023,01:35:01,0.000,0.0,0.0,0.0
05/10/2023,01:36:01,0.000,0.0,0.0,0.0
05/10/2023,01:37:01,0.000,0.0,0.0,0.0
05/10/2023,01:38:00,-0.000,0.0,0.0,0.0
05/10/2023,01:39:01,0.001,0.0,0.0,0.0
05/10/2023,01:40:01,-0.000,0.0,0.0,0.0
05/10/2023,01:41:00,0.000,0.0,0.0,0.0
05/10/2023,01:42:01,0.002,0.0,0.0,0.0
05/10/2023,01:43:01,-0.000,0.0,0.0,0.0
05/10/2023,01:44:01,0.000,0.0,0.0,0.0
05/10/2023,01:45:01,0.000,0.0,0.0,0.0
05/10/2023,01:46:00,-0.001,0.0,0.0,0.0
05/10/2023,01:47:01,0.000,0.0,0.0,0.0
05/10/2023,01:48:00,-0.001,0.0,0.0,0.0
05/10/2023,01:49:01,-0.001,0.0,0.0,0.0
05/10/2023,01:50:01,-0.001,0.0,0.0,0.0
05/10/2023,01:51:01,0.000,0.0,0.0,0.0
05/10/2023,01:52:00,0.000,0.0,0.0,0.0
05/10/2023,01:53:01,-0.000,0.0,0.0,0.0
05/10/2023,01:54:01,-0.001,0.0,0.0,0.0
05/10/2023,01:55:01,-0.001,0.0,0.0,0.0
05/10/2023,01:56:00,0.000,0.0,0.0,0.0
05/10/2023,01:57:01,0.000,0.0,0.0,0.0
05/10/2023,01:58:01,0.000,0.0,0.0,0.0
05/10/2023,01:59:01,-0.001,0.0,0.0,0.0
05/10/2023,02:00:01,-0.001,0.0,0.0,0.0
05/10/2023,02:01:01,0.000,0.0,0.0,0.0
05/10/2023,02:02:01,0.000,0.0,0.0,0.0
05/10/2023,02:03:01,0.000,0.0,0.0,0.0
05/10/2023,02:04:01,0.000,0.0,0.0,0.0
05/10/2023,02:05:01,0.000,0.0,0.0,0.0
05/10/2023,02:06:01,0.000,0.0,0.0,0.0
05/10/2023,02:07:01,-0.001,0.0,0.0,0.0
05/10/2023,02:08:01,-0.000,0.0,0.0,0.0
05/10/2023,02:09:01,-0.001,0.0,0.0,0.0
05/10/2023,02:10:01,0.000,0.0,0.0,0.0
05/10/2023,02:11:01,-0.000,0.0,0.0,0.0
05/10/2023,02:12:01,0.000,0.0,0.0,0.0
05/10/2023,02:13:01,-0.000,0.0,0.0,0.0
05/10/2023,02:14:01,0.001,0.0,0.0,0.0
05/10/2023,02:15:01,-0.000,0.0,0.0,0.0
05/10/2023,02:16:01,0.000,0.0,0.0,0.0
05/10/2023,02:17:01,0.000,0.0,0.0,0.0
05/10/2023,02:18:01,0.000,0.0,0.0,0.0
05/10/2023,02:19:01,0.000,0.0,0.0,0.0
05/10/2023,02:20:01,-0.000,0.0,0.0,0.0
05/10/2023,02:21:01,-0.001,0.0,0.0,0.0
05/10/2023,02:22:01,0.000,0.0,0.0,0.0
05/10/2023,02:23:01,-0.001,0.0,0.0,0.0
05/10/2023,02:24:01,0.000,0.0,0.0,0.0
05/10/2023,02:25:01,0.000,0.0,0.0,0.0
05/10/2023,02:26:01,0.000,0.0,0.0,0.0
05/10/2023,02:27:01,0.000,0.0,0.0,0.0
05/10/2023,02:28:01,0.000,0.0,0.0,0.0
05/10/2023,02:29:00,0.001,0.0,0.0,0.0
05/10/2023,02:30:01,0.000,0.0,0.0,0.0
05/10/2023,02:31:01,-0.000,0.0,0.0,0.0
05/10/2023,02:32:01,0.001,0.0,0.0,0.0
05/10/2023,02:33:01,0.000,0.0,0.0,0.0
05/10/2023,02:34:01,-0.000,0.0,0.0,0.0
05/10/2023,02:35:01,-0.000,0.0,0.0,0.0
05/10/2023,02:36:01,0.000,0.0,0.0,0.0
05/10/2023,02:37:01,0.000,0.0,0.0,0.0
05/10/2023,02:38:01,0.001,0.0,0.0,0.0
05/10/2023,02:39:01,0.001,0.0,0.0,0.0
05/10/2023,02:40:01,0.000,0.0,0.0,0.0
05/10/2023,02:41:01,-0.001,0.0,0.0,0.0
05/10/2023,02:42:01,0.000,0.0,0.0,0.0
05/10/2023,02:43:00,-0.001,0.0,0.0,0.0
05/10/2023,02:44:01,-0.001,0.0,0.0,0.0
05/10/2023,02:45:01,0.000,0.0,0.0,0.0
05/10/2023,02:46:01,0.001,0.0,0.0,0.0
05/10/2023,02:47:01,0.000,0.0,0.0,0.0
05/10/2023,02:48:01,0.000,0.0,0.0,0.0
05/10/2023,02:49:01,0.000,0.0,0.0,0.0
05/10/2023,02:50:01,-0.000,0.0,0.0,0.0
05/10/2023,02:51:01,-0.001,0.0,0.0,0.0
05/10/2023,02:52:02,0.001,0.0,0.0,0.0
05/10/2023,02:53:01,0.000,0.0,0.0,0.0
05/10/2023,02:54:01,0.001,0.0,0.0,0.0
05/10/2023,02:55:00,0.001,0.0,0.0,0.0
05/10/2023,02:56:01,0.001,0.0,0.0,0.0
05/10/2023,02:57:01,0.001,0.0,0.0,0.0
05/10/2023,02:58:01,0.001,0.0,0.0,0.0
05/10/2023,02:59:00,0.001,0.0,0.0,0.0
05/10/2023,03:00:01,0.000,0.0,0.0,0.0
05/10/2023,03:01:01,-0.000,0.0,0.0,0.0
05/10/2023,03:02:03,-0.000,0.0,0.0,0.0
05/10/2023,03:03:01,0.002,0.0,0.0,0.0
05/10/2023,03:04:01,-0.001,0.0,0.0,0.0
05/10/2023,03:05:01,-0.000,0.0,0.0,0.0
05/10/2023,03:06:01,0.000,0.0,0.0,0.0
05/10/2023,03:07:01,0.000,0.0,0.0,0.0
05/10/2023,03:08:01,-0.001,0.0,0.0,0.0
05/10/2023,03:09:02,0.000,0.0,0.0,0.0
05/10/2023,03:10:01,0.000,0.0,0.0,0.0
05/10/2023,03:11:01,0.000,0.0,0.0,0.0
05/10/2023,03:12:01,0.000,0.0,0.0,0.0
05/10/2023,03:13:01,-0.001,0.0,0.0,0.0
05/10/2023,03:14:01,0.000,0.0,0.0,0.0
05/10/2023,03:15:01,0.000,0.0,0.0,0.0
05/10/2023,03:16:01,0.000,0.0,0.0,0.0
05/10/2023,03:17:01,-0.000,0.0,0.0,0.0
05/10/2023,03:18:01,0.000,0.0,0.0,0.0
05/10/2023,03:19:01,0.000,0.0,0.0,0.0
05/10/2023,03:20:01,0.000,0.0,0.0,0.0
05/10/2023,03:21:01,-0.001,0.0,0.0,0.0
05/10/2023,03:22:01,-0.001,0.0,0.0,0.0
05/10/2023,03:23:01,-0.000,0.0,0.0,0.0
05/10/2023,03:24:01,0.000,0.0,0.0,0.0
05/10/2023,03:25:01,-0.001,0.0,0.0,0.0
05/10/2023,03:26:01,-0.001,0.0,0.0,0.0
05/10/2023,03:27:01,0.000,0.0,0.0,0.0
05/10/2023,03:28:01,0.000,0.0,0.0,0.0
05/10/2023,03:29:01,0.000,0.0,0.0,0.0
05/10/2023,03:30:01,0.000,0.0,0.0,0.0
05/10/2023,03:31:01,0.000,0.0,0.0,0.0
05/10/2023,03:32:01,-0.001,0.0,0.0,0.0
05/10/2023,03:33:01,0.000,0.0,0.0,0.0
05/10/2023,03:34:02,-0.001,0.0,0.0,0.0
05/10/2023,03:35:01,0.000,0.0,0.0,0.0
05/10/2023,03:36:01,-0.001,0.0,0.0,0.0
05/10/2023,03:37:01,0.000,0.0,0.0,0.0
05/10/2023,03:38:01,0.000,0.0,0.0,0.0
05/10/2023,03:39:01,-0.000,0.0,0.0,0.0
05/10/2023,03:40:01,0.000,0.0,0.0,0.0
05/10/2023,03:41:01,-0.001,0.0,0.0,0.0
05/10/2023,03:42:01,0.000,0.0,0.0,0.0
05/10/2023,03:43:01,0.002,0.0,0.0,0.0
05/10/2023,03:44:01,0.000,0.0,0.0,0.0
05/10/2023,03:45:01,0.000,0.0,0.0,0.0
05/10/2023,03:46:01,0.000,0.0,0.0,0.0
05/10/2023,03:47:01,0.000,0.0,0.0,0.0
05/10/2023,03:48:01,-0.000,0.0,0.0,0.0
05/10/2023,03:49:01,0.000,0.0,0.0,0.0
05/10/2023,03:50:01,-0.000,0.0,0.0,0.0
05/10/2023,03:51:01,-0.001,0.0,0.0,0.0
05/10/2023,03:52:01,0.000,0.0,0.0,0.0
05/10/2023,03:53:01,0.000,0.0,0.0,0.0
05/10/2023,03:54:01,0.000,0.0,0.0,0.0
05/10/2023,03:55:01,0.000,0.0,0.0,0.0
05/10/2023,03:56:01,-0.000,0.0,0.0,0.0
05/10/2023,03:57:02,0.000,0.0,0.0,0.0
05/10/2023,03:58:01,0.000,0.0,0.0,0.0
05/10/2023,03:59:01,-0.001,0.0,0.0,0.0
05/10/2023,04:00:01,0.000,0.0,0.0,0.0
05/10/2023,04:01:01,0.000,0.0,0.0,0.0
05/10/2023,04:02:01,0.001,0.0,0.0,0.0
05/10/2023,04:03:02,0.000,0.0,0.0,0.0
05/10/2023,04:04:01,0.000,0.0,0.0,0.0
05/10/2023,04:05:01,0.000,0.0,0.0,0.0
05/10/2023,04:06:03,-0.001,0.0,0.0,0.0
05/10/2023,04:07:01,0.000,0.0,0.0,0.0
05/10/2023,04:08:01,0.000,0.0,0.0,0.0
05/10/2023,04:09:01,0.000,0.0,0.0,0.0
05/10/2023,04:10:01,0.001,0.0,0.0,0.0
05/10/2023,04:11:01,0.000,0.0,0.0,0.0
05/10/2023,04:12:01,0.000,0.0,0.0,0.0
05/10/2023,04:13:02,-0.001,0.0,0.0,0.0
05/10/2023,04:14:01,0.000,0.0,0.0,0.0
05/10/2023,04:15:01,0.000,0.0,0.0,0.0
05/10/2023,04:16:01,0.000,0.0,0.0,0.0
05/10/2023,04:17:01,0.000,0.0,0.0,0.0
05/10/2023,04:18:01,-0.001,0.0,0.0,0.0
05/10/2023,04:19:01,-0.000,0.0,0.0,0.0
05/10/2023,04:20:01,-0.000,0.0,0.0,0.0
05/10/2023,04:21:01,0.000,0.0,0.0,0.0
05/10/2023,04:22:01,0.000,0.0,0.0,0.0
05/10/2023,04:23:01,0.000,0.0,0.0,0.0
05/10/2023,04:24:01,0.000,0.0,0.0,0.0
05/10/2023,04:25:01,-0.000,0.0,0.0,0.0
05/10/2023,04:26:02,0.000,0.0,0.0,0.0
05/10/2023,04:27:01,-0.000,0.0,0.0,0.0
05/10/2023,04:28:01,0.000,0.0,0.0,0.0
05/10/2023,04:29:01,0.000,0.0,0.0,0.0
05/10/2023,04:30:01,0.000,0.0,0.0,0.0
05/10/2023,04:31:01,-0.000,0.0,0.0,0.0
05/10/2023,04:32:01,0.000,0.0,0.0,0.0
05/10/2023,04:33:02,0.000,0.0,0.0,0.0
05/10/2023,04:34:01,0.000,0.0,0.0,0.0
05/10/2023,04:35:02,-0.001,0.0,0.0,0.0
05/10/2023,04:36:02,-0.001,0.0,0.0,0.0
05/10/2023,04:37:01,-0.001,0.0,0.0,0.0
05/10/2023,04:38:01,0.001,0.0,0.0,0.0
05/10/2023,04:39:01,0.002,0.0,0.0,0.0
05/10/2023,04:40:01,0.000,0.0,0.0,0.0
05/10/2023,04:41:01,-0.001,0.0,0.0,0.0
05/10/2023,04:42:30,0.000,0.0,0.0,0.0
05/10/2023,04:44:01,0.000,0.0,0.0,0.0
05/10/2023,04:45:01,0.000,0.0,0.0,0.0
05/10/2023,04:46:01,-0.001,0.0,0.0,0.0
05/10/2023,04:47:01,-0.000,0.0,0.0,0.0
05/10/2023,04:48:02,-0.000,0.0,0.0,0.0
05/10/2023,04:49:01,0.001,0.0,0.0,0.0
05/10/2023,04:50:01,-0.000,0.0,0.0,0.0
05/10/2023,04:51:02,-0.000,0.0,0.0,0.0
05/10/2023,04:52:01,-0.000,0.0,0.0,0.0
05/10/2023,04:53:01,-0.000,0.0,0.0,0.0
05/10/2023,04:54:01,-0.000,0.0,0.0,0.0
05/10/2023,04:55:01,-0.000,0.0,0.0,0.0
05/10/2023,04:56:01,-0.000,0.0,0.0,0.0
05/10/2023,04:57:01,0.000,0.0,0.0,0.0
05/10/2023,04:58:01,0.000,0.0,0.0,0.0
05/10/2023,04:59:01,-0.000,0.0,0.0,0.0
05/10/2023,05:00:01,0.000,0.0,0.0,0.0
05/10/2023,05:01:01,0.000,0.0,0.0,0.0
05/10/2023,05:02:01,-0.001,0.0,0.0,0.0
05/10/2023,05:03:01,-0.001,0.0,0.0,0.0
05/10/2023,05:04:02,0.000,0.0,0.0,0.0
05/10/2023,05:05:01,-0.001,0.0,0.0,0.0
05/10/2023,05:06:01,0.000,0.0,0.0,0.0
05/10/2023,05:07:01,0.001,0.0,0.0,0.0
05/10/2023,05:08:02,-0.000,0.0,0.0,0.0
05/10/2023,05:09:01,0.001,0.0,0.0,0.0
05/10/2023,05:10:01,-0.000,0.0,0.0,0.0
05/10/2023,05:11:02,-0.001,0.0,0.0,0.0
05/10/2023,05:12:02,0.000,0.0,0.0,0.0
05/10/2023,05:13:01,0.000,0.0,0.0,0.0
05/10/2023,05:14:02,-0.000,0.0,0.0,0.0
05/10/2023,05:15:01,0.000,0.0,0.0,0.0
05/10/2023,05:16:01,-0.001,0.0,0.0,0.0
05/10/2023,05:17:01,0.000,0.0,0.0,0.0
05/10/2023,05:18:02,0.000,0.0,0.0,0.0
05/10/2023,05:19:01,-0.000,0.0,0.0,0.0
05/10/2023,05:20:01,-0.000,0.0,0.0,0.0
05/10/2023,05:21:02,0.001,0.0,0.0,0.0
05/10/2023,05:22:01,-0.000,0.0,0.0,0.0
05/10/2023,05:23:01,-0.001,0.0,0.0,0.0
05/10/2023,05:24:02,0.000,0.0,0.0,0.0
05/10/2023,05:25:01,0.000,0.0,0.0,0.0
05/10/2023,05:26:01,-0.001,0.0,0.0,0.0
05/10/2023,05:27:01,0.000,0.0,0.0,0.0
05/10/2023,05:28:01,0.000,0.0,0.0,0.0
05/10/2023,05:29:01,0.000,0.0,0.0,0.0
05/10/2023,05:30:02,-0.001,0.0,0.0,0.0
05/10/2023,05:31:02,-0.000,0.0,0.0,0.0
05/10/2023,05:32:01,0.000,0.0,0.0,0.0
05/10/2023,05:33:01,0.000,0.0,0.0,0.0
05/10/2023,05:34:01,0.000,0.0,0.0,0.0
05/10/2023,05:35:02,0.000,0.0,0.0,0.0
05/10/2023,05:35:59,0.000,0.0,0.0,0.0
05/10/2023,05:37:01,-0.001,0.0,0.0,0.0
05/10/2023,05:38:01,0.001,0.0,0.0,0.0
05/10/2023,05:39:01,0.000,0.0,0.0,0.0
05/10/2023,05:40:01,-0.000,0.0,0.0,0.0
05/10/2023,05:41:01,-0.001,0.0,0.0,0.0
05/10/2023,05:42:02,0.000,0.0,0.0,0.0
05/10/2023,05:43:01,0.000,0.0,0.0,0.0
05/10/2023,05:44:01,-0.001,0.0,0.0,0.0
05/10/2023,05:45:02,0.000,0.0,0.0,0.0
05/10/2023,05:46:01,0.000,0.0,0.0,0.0
05/10/2023,05:47:01,-0.001,0.0,0.0,0.0
05/10/2023,05:48:02,0.000,0.0,0.0,0.0
05/10/2023,05:49:01,0.000,0.0,0.0,0.0
05/10/2023,05:50:02,0.000,0.0,0.0,0.0
05/10/2023,05:51:01,-0.000,0.0,0.0,0.0
05/10/2023,05:52:01,0.001,0.0,0.0,0.0
05/10/2023,05:53:01,0.000,0.0,0.0,0.0
05/10/2023,05:54:01,0.000,0.0,0.0,0.0
05/10/2023,05:55:02,0.000,0.0,0.0,0.0
05/10/2023,05:56:01,0.000,0.0,0.0,0.0
05/10/2023,05:57:01,0.000,0.0,0.0,0.0
05/10/2023,05:58:01,0.001,0.0,0.0,0.0
05/10/2023,05:59:02,0.000,0.0,0.0,0.0
05/10/2023,06:00:02,0.000,0.0,0.0,0.0
05/10/2023,06:01:01,0.000,0.0,0.0,0.0
05/10/2023,06:02:01,0.000,0.0,0.0,0.0
05/10/2023,06:03:01,0.000,0.0,0.0,0.0
05/10/2023,06:04:01,0.000,0.0,0.0,0.0
05/10/2023,06:05:02,0.000,0.0,0.0,0.0
05/10/2023,06:06:03,0.000,0.0,0.0,0.0
05/10/2023,06:07:01,-0.000,0.0,0.0,0.0
05/10/2023,06:08:01,0.001,0.0,0.0,0.0
05/10/2023,06:09:01,0.000,0.0,0.0,0.0
05/10/2023,06:10:02,-0.000,0.0,0.0,0.0
05/10/2023,06:11:01,0.001,0.0,0.0,0.0
05/10/2023,06:12:02,0.001,0.0,0.0,0.0
05/10/2023,06:13:01,0.002,0.0,0.0,0.0
05/10/2023,06:14:01,0.002,0.0,0.0,0.0
05/10/2023,06:15:01,0.001,0.0,0.0,0.0
05/10/2023,06:16:02,0.001,0.0,0.0,0.0
05/10/2023,06:17:01,0.001,0.0,0.0,0.0
05/10/2023,06:18:01,0.001,0.0,0.0,0.0
05/10/2023,06:19:02,0.002,0.0,0.0,0.0
05/10/2023,06:20:01,0.002,0.0,0.0,0.0
05/10/2023,06:21:01,0.002,0.0,0.0,0.0
05/10/2023,06:22:01,0.003,0.0,0.0,0.0
05/10/2023,06:23:01,0.003,0.0,0.0,0.0
05/10/2023,06:24:01,0.003,0.0,0.0,0.0
05/10/2023,06:25:01,0.002,0.0,0.0,0.0
05/10/2023,06:26:02,0.002,0.0,0.0,0.0
05/10/2023,06:27:01,0.003,0.0,0.0,0.0
05/10/2023,06:28:01,0.003,0.0,0.0,0.0
05/10/2023,06:29:01,0.003,0.0,0.0,0.0
05/10/2023,06:30:01,0.003,0.0,0.0,0.0
05/10/2023,06:31:02,0.003,0.0,0.0,0.0
05/10/2023,06:32:02,0.003,0.0,0.0,0.0
05/10/2023,06:33:01,0.004,0.0,0.0,0.0
05/10/2023,06:34:01,0.004,0.0,0.0,0.0
05/10/2023,06:35:02,0.004,0.0,0.0,0.0
05/10/2023,06:36:01,0.004,0.0,0.0,0.0
05/10/2023,06:37:01,0.005,0.0,0.0,0.0
05/10/2023,06:38:01,0.006,0.0,0.0,0.0
05/10/2023,06:39:01,0.005,0.0,0.0,0.0
05/10/2023,06:40:01,0.006,0.0,0.0,0.0
05/10/2023,06:41:01,0.006,0.0,0.0,0.0
05/10/2023,06:42:01,0.006,0.0,0.0,0.0
05/10/2023,06:43:01,0.007,0.0,0.0,0.0
05/10/2023,06:44:02,0.007,0.0,0.0,0.0
05/10/2023,06:45:01,0.008,0.0,0.001,0.001
05/10/2023,06:46:01,0.008,0.0,0.001,0.0
05/10/2023,06:47:02,0.009,0.0,0.001,0.0
05/10/2023,06:48:02,0.009,0.0,0.001,0.0
05/10/2023,06:49:01,0.010,0.0,0.001,0.0
05/10/2023,06:50:02,0.009,0.0,0.001,0.0
05/10/2023,06:51:02,0.011,0.0,0.001,0.0
05/10/2023,06:52:01,0.011,0.0,0.002,0.001
05/10/2023,06:53:01,0.012,0.0,0.002,0.0
05/10/2023,06:54:02,0.012,0.0,0.002,0.0
05/10/2023,06:55:02,0.013,0.0,0.002,0.0
05/10/2023,06:56:01,0.013,0.0,0.002,0.0
05/10/2023,06:57:02,0.014,0.0,0.003,0.001
05/10/2023,06:58:01,0.013,0.0,0.003,0.0
05/10/2023,06:59:02,0.013,0.0,0.003,0.0
05/10/2023,07:00:01,0.013,0.0,0.003,0.0
05/10/2023,07:01:02,0.014,0.0,0.004,0.001
05/10/2023,07:02:02,0.014,0.0,0.004,0.0
05/10/2023,07:03:01,0.014,0.0,0.004,0.0
05/10/2023,07:04:01,0.014,0.0,0.004,0.0
05/10/2023,07:05:01,0.015,0.0,0.005,0.001
05/10/2023,07:06:01,0.015,0.0,0.005,0.0
05/10/2023,07:07:01,0.014,0.0,0.005,0.0
05/10/2023,07:08:01,0.014,0.0,0.005,0.0
05/10/2023,07:09:01,0.016,0.0,0.005,0.0
05/10/2023,07:10:02,0.016,0.0,0.006,0.001
05/10/2023,07:11:02,0.015,0.0,0.006,0.0
05/10/2023,07:12:01,0.016,0.0,0.006,0.0
05/10/2023,07:13:02,0.016,0.0,0.007,0.001
05/10/2023,07:14:01,0.017,0.0,0.007,0.0
05/10/2023,07:15:01,0.017,0.0,0.007,0.0
05/10/2023,07:16:02,0.017,0.0,0.007,0.0
05/10/2023,07:17:02,0.017,0.0,0.008,0.001
05/10/2023,07:18:01,0.018,0.0,0.008,0.0
05/10/2023,07:19:02,0.018,0.0,0.008,0.0
05/10/2023,07:20:01,0.019,0.0,0.009,0.001
05/10/2023,07:21:01,0.019,0.0,0.009,0.0
05/10/2023,07:22:01,0.020,0.0,0.009,0.0
05/10/2023,07:23:02,0.020,0.0,0.01,0.001
05/10/2023,07:24:01,0.022,0.0,0.01,0.0
05/10/2023,07:25:01,0.023,0.0,0.01,0.0
05/10/2023,07:26:01,0.024,0.0,0.011,0.001
05/10/2023,07:27:01,0.024,0.0,0.011,0.0
05/10/2023,07:28:01,0.024,0.0,0.011,0.0
05/10/2023,07:29:02,0.025,0.0,0.012,0.001
05/10/2023,07:30:01,0.025,0.0,0.012,0.0
05/10/2023,07:31:01,0.025,0.0,0.013,0.001
05/10/2023,07:32:02,0.026,0.0,0.013,0.0
05/10/2023,07:33:01,0.027,0.0,0.014,0.001
05/10/2023,07:34:01,0.029,0.0,0.014,0.0
05/10/2023,07:35:02,0.030,0.0,0.015,0.001
05/10/2023,07:36:02,0.030,0.0,0.015,0.0
05/10/2023,07:37:01,0.031,0.0,0.016,0.001
05/10/2023,07:38:01,0.031,0.0,0.016,0.0
05/10/2023,07:39:02,0.031,0.0,0.017,0.001
05/10/2023,07:40:02,0.030,0.0,0.017,0.0
05/10/2023,07:41:01,0.031,0.0,0.018,0.001
05/10/2023,07:42:02,0.032,0.0,0.018,0.0
05/10/2023,07:43:01,0.033,0.0,0.019,0.001
05/10/2023,07:44:01,0.034,0.0,0.019,0.0
05/10/2023,07:45:02,0.035,0.0,0.02,0.001
05/10/2023,07:46:01,0.037,0.0,0.02,0.0
05/10/2023,07:47:01,0.039,0.0,0.021,0.001
05/10/2023,07:48:01,0.040,0.0,0.022,0.001
05/10/2023,07:49:02,0.042,0.0,0.022,0.0
05/10/2023,07:50:02,0.043,0.0,0.023,0.001
05/10/2023,07:51:01,0.044,0.0,0.024,0.001
05/10/2023,07:52:02,0.046,0.0,0.025,0.001
05/10/2023,07:53:02,0.047,0.0,0.025,0.0
05/10/2023,07:54:01,0.048,0.0,0.026,0.001
05/10/2023,07:55:02,0.051,0.0,0.027,0.001
05/10/2023,07:56:01,0.054,0.0,0.028,0.001
05/10/2023,07:57:01,0.057,0.0,0.029,0.001
05/10/2023,07:58:02,0.062,0.0,0.03,0.001
05/10/2023,07:59:02,0.066,0.0,0.031,0.001
05/10/2023,08:00:02,0.071,0.0,0.032,0.001
05/10/2023,08:01:01,0.076,0.0,0.033,0.001
05/10/2023,08:02:03,0.081,0.0,0.034,0.001
05/10/2023,08:03:01,0.084,0.0,0.036,0.002
05/10/2023,08:04:02,0.088,0.0,0.037,0.001
05/10/2023,08:05:02,0.090,0.0,0.039,0.002
05/10/2023,08:06:01,0.094,0.0,0.04,0.001
05/10/2023,08:07:02,0.097,0.0,0.042,0.002
05/10/2023,08:08:02,0.100,0.0,0.044,0.002
05/10/2023,08:09:01,0.103,0.0,0.045,0.001
05/10/2023,08:10:02,0.105,0.0,0.047,0.002
05/10/2023,08:11:02,0.108,0.0,0.049,0.002
05/10/2023,08:12:01,0.109,0.0,0.051,0.002
05/10/2023,08:13:02,0.110,0.0,0.052,0.001
05/10/2023,08:14:01,0.110,0.0,0.054,0.002
05/10/2023,08:15:02,0.112,0.0,0.056,0.002
05/10/2023,08:16:02,0.113,0.0,0.058,0.002
05/10/2023,08:17:01,0.113,0.0,0.06,0.002
05/10/2023,08:18:01,0.115,0.0,0.062,0.002
05/10/2023,08:19:01,0.114,0.0,0.064,0.002
05/10/2023,08:20:02,0.115,0.0,0.066,0.002
05/10/2023,08:21:01,0.115,0.0,0.068,0.002
05/10/2023,08:22:02,0.113,0.0,0.069,0.001
05/10/2023,08:23:01,0.114,0.0,0.071,0.002
05/10/2023,08:24:02,0.114,0.0,0.073,0.002
05/10/2023,08:25:02,0.115,0.0,0.075,0.002
05/10/2023,08:26:02,0.114,0.0,0.077,0.002
05/10/2023,08:27:01,0.115,0.0,0.079,0.002
05/10/2023,08:28:02,0.120,0.0,0.081,0.002
05/10/2023,08:29:02,0.121,0.0,0.083,0.002
05/10/2023,08:30:02,0.125,0.0,0.085,0.002
05/10/2023,08:31:01,0.128,0.0,0.087,0.002
05/10/2023,08:32:02,0.133,0.0,0.089,0.002
05/10/2023,08:33:01,0.138,0.0,0.091,0.002
05/10/2023,08:34:02,0.142,0.0,0.094,0.003
05/10/2023,08:35:01,0.145,0.0,0.096,0.002
05/10/2023,08:36:02,0.147,0.0,0.099,0.003
05/10/2023,08:37:02,0.151,0.0,0.101,0.002
05/10/2023,08:38:01,0.155,0.0,0.104,0.003
05/10/2023,08:39:02,0.158,0.0,0.106,0.002
05/10/2023,08:40:01,0.164,0.0,0.109,0.003
05/10/2023,08:41:02,0.168,0.0,0.112,0.003
05/10/2023,08:42:01,0.169,0.0,0.115,0.003
05/10/2023,08:43:01,0.170,0.0,0.117,0.002
05/10/2023,08:44:01,0.172,0.0,0.12,0.003
05/10/2023,08:45:02,0.175,0.0,0.123,0.003
05/10/2023,08:46:01,0.178,0.0,0.126,0.003
05/10/2023,08:47:01,0.177,0.0,0.129,0.003
05/10/2023,08:48:01,0.180,0.0,0.132,0.003
05/10/2023,08:49:02,0.181,0.0,0.135,0.003
05/10/2023,08:50:02,0.187,0.0,0.138,0.003
05/10/2023,08:51:01,0.194,0.0,0.141,0.003
05/10/2023,08:52:02,0.202,0.0,0.145,0.004
05/10/2023,08:53:02,0.210,0.0,0.148,0.003
05/10/2023,08:54:02,0.216,0.0,0.152,0.004
05/10/2023,08:55:01,0.220,1.0,0.155,0.003
05/10/2023,08:56:01,0.223,1.0,0.159,0.004
05/10/2023,08:57:01,0.227,1.0,0.163,0.004
05/10/2023,08:58:02,0.231,1.0,0.167,0.004
05/10/2023,08:59:02,0.236,1.0,0.17,0.003
05/10/2023,09:00:01,0.240,1.0,0.174,0.004
05/10/2023,09:01:04,0.249,1.0,0.179,0.005
05/10/2023,09:02:01,0.253,1.0,0.182,0.003
05/10/2023,09:03:02,0.256,1.0,0.187,0.005
05/10/2023,09:04:01,0.260,1.0,0.191,0.004
05/10/2023,09:05:02,0.265,1.0,0.196,0.005
05/10/2023,09:06:02,0.267,1.0,0.2,0.004
05/10/2023,09:07:02,0.270,1.0,0.204,0.004
05/10/2023,09:08:01,0.272,1.0,0.209,0.005
05/10/2023,09:09:01,0.276,1.0,0.214,0.005
05/10/2023,09:10:01,0.279,1.0,0.218,0.004
05/10/2023,09:11:02,0.279,1.0,0.223,0.005
05/10/2023,09:12:01,0.283,1.0,0.228,0.005
05/10/2023,09:13:01,0.289,1.0,0.232,0.004
05/10/2023,09:14:01,0.291,1.0,0.237,0.005
05/10/2023,09:15:02,0.295,1.0,0.242,0.005
05/10/2023,09:16:01,0.300,1.0,0.247,0.005
05/10/2023,09:17:02,0.308,1.0,0.252,0.005
05/10/2023,09:18:02,0.315,1.0,0.257,0.005
05/10/2023,09:19:01,0.328,1.0,0.262,0.005
05/10/2023,09:20:02,0.343,1.0,0.268,0.006
05/10/2023,09:21:01,0.362,1.0,0.274,0.006
05/10/2023,09:22:02,0.369,1.0,0.28,0.006
05/10/2023,09:23:02,0.380,1.0,0.286,0.006
05/10/2023,09:24:01,0.397,1.0,0.293,0.007
05/10/2023,09:25:02,0.420,1.0,0.3,0.007
05/10/2023,09:26:01,0.426,1.0,0.307,0.007
05/10/2023,09:27:01,0.431,1.0,0.314,0.007
05/10/2023,09:28:01,0.429,1.0,0.321,0.007
05/10/2023,09:29:02,0.427,1.0,0.328,0.007
05/10/2023,09:30:02,0.433,1.0,0.335,0.007
05/10/2023,09:31:01,0.442,1.0,0.342,0.007
05/10/2023,09:32:01,0.442,1.0,0.35,0.008
05/10/2023,09:33:01,0.467,1.0,0.357,0.007
05/10/2023,09:34:02,0.461,1.0,0.365,0.008
05/10/2023,09:35:02,0.463,1.0,0.373,0.008
05/10/2023,09:36:01,0.466,1.0,0.38,0.007
05/10/2023,09:37:02,0.465,1.0,0.388,0.008
05/10/2023,09:38:01,0.447,1.0,0.396,0.008
05/10/2023,09:39:02,0.441,1.0,0.403,0.007
05/10/2023,09:40:01,0.438,1.0,0.411,0.008
05/10/2023,09:41:01,0.439,1.0,0.418,0.007
05/10/2023,09:42:02,0.448,1.0,0.425,0.007
05/10/2023,09:43:02,0.463,1.0,0.433,0.008
05/10/2023,09:44:01,0.457,1.0,0.441,0.008
05/10/2023,09:45:01,0.460,1.0,0.448,0.007
05/10/2023,09:46:01,0.467,1.0,0.456,0.008
05/10/2023,09:47:02,0.464,1.0,0.464,0.008
05/10/2023,09:48:02,0.465,1.0,0.471,0.007
05/10/2023,09:49:02,0.453,1.0,0.479,0.008
05/10/2023,09:50:02,0.439,1.0,0.486,0.007
05/10/2023,09:51:01,0.434,1.0,0.494,0.008
05/10/2023,09:52:02,0.441,1.0,0.501,0.007
05/10/2023,09:53:02,0.444,1.0,0.508,0.007
05/10/2023,09:54:01,0.445,1.0,0.516,0.008
05/10/2023,09:55:01,0.435,1.0,0.523,0.007
05/10/2023,09:56:02,0.424,1.0,0.53,0.007
05/10/2023,09:57:02,0.419,1.0,0.537,0.007
05/10/2023,09:58:01,0.408,1.0,0.544,0.007
05/10/2023,09:59:02,0.393,1.0,0.551,0.007
05/10/2023,10:00:02,0.379,1.0,0.557,0.006
05/10/2023,10:01:01,0.368,1.0,0.564,0.007
05/10/2023,10:02:02,0.358,1.0,0.57,0.006
05/10/2023,10:03:02,0.353,1.0,0.576,0.006
05/10/2023,10:04:02,0.352,1.0,0.581,0.005
05/10/2023,10:05:03,0.349,1.0,0.587,0.006
05/10/2023,10:06:03,0.347,1.0,0.593,0.006
05/10/2023,10:07:02,0.349,1.0,0.599,0.006
05/10/2023,10:08:02,0.351,1.0,0.605,0.006
05/10/2023,10:09:01,0.354,1.0,0.61,0.005